Index of /dists

[ICO]NameLast modifiedSizeDescription

[PARENTDIR]Parent Directory  -  
[DIR]trusty/2015-10-07 08:44 -  
[DIR]xenial/2016-04-21 04:43 -  
[DIR]trusty-backports/2017-12-15 06:49 -  
[DIR]bionic/2018-04-26 20:38 -  
[DIR]focal/2020-04-23 14:34 -  
[DIR]trusty-security/2020-05-29 05:06 -  
[DIR]trusty-updates/2020-05-29 05:08 -  
[DIR]jammy/2022-04-21 14:16 -  
[DIR]kinetic/2022-10-20 16:48 -  
[DIR]devel-backports/2022-11-29 17:39 -  
[DIR]lunar-backports/2022-11-29 17:39 -  
[DIR]devel-security/2022-11-29 19:45 -  
[DIR]lunar-security/2022-11-29 19:45 -  
[DIR]devel-updates/2022-11-29 19:45 -  
[DIR]lunar-updates/2022-11-29 19:45 -  
[DIR]trusty-proposed/2023-01-03 05:34 -  
[DIR]kinetic-security/2023-01-31 14:15 -  
[DIR]kinetic-backports/2023-01-31 14:15 -  
[DIR]jammy-security/2023-01-31 14:16 -  
[DIR]jammy-updates/2023-01-31 14:16 -  
[DIR]jammy-backports/2023-01-31 14:16 -  
[DIR]focal-security/2023-01-31 14:18 -  
[DIR]focal-updates/2023-01-31 14:19 -  
[DIR]focal-backports/2023-01-31 14:20 -  
[DIR]bionic-security/2023-01-31 14:21 -  
[DIR]bionic-backports/2023-01-31 14:23 -  
[DIR]xenial-security/2023-01-31 14:24 -  
[DIR]xenial-updates/2023-01-31 14:25 -  
[DIR]xenial-backports/2023-01-31 14:25 -  
[DIR]kinetic-updates/2023-01-31 14:54 -  
[DIR]bionic-proposed/2023-01-31 14:55 -  
[DIR]xenial-proposed/2023-01-31 14:55 -  
[DIR]devel/2023-01-31 15:27 -  
[DIR]lunar/2023-01-31 15:27 -  
[DIR]devel-proposed/2023-01-31 15:27 -  
[DIR]lunar-proposed/2023-01-31 15:27 -  
[DIR]kinetic-proposed/2023-01-31 15:27 -  
[DIR]jammy-proposed/2023-01-31 15:27 -  
[DIR]focal-proposed/2023-01-31 15:28 -  
[DIR]bionic-updates/2023-01-31 15:29 -